When you browse on this site, cookies collect data to enhance your experience and personalize the content and advertising you see.
Visit our Privacy Policy to learn more. By continuing to use the site, you agree to this use of cookies and data.
  • In Sweden
  • List of Countries
  • For 7 days
  • Water Temperature
  • Satellite Maps
  • Weather Map
  • Weather Widgets
  • user-avatar
    Login

    Hourly Weather Stirling

    Today, 22 January, Tuesday

    Time Temperature Precipitation Wind Pressure Humidity
    00:00 +2°C° 0.3 mm 3 mps 747 mmHg 89%
    01:00 +1°C° 0 mm 3 mps 747 mmHg 88%
    02:00 +1°C° 0 mm 3 mps 747 mmHg 87%
    03:00 0°C° 0 mm 3 mps 747 mmHg 86%
    04:00 0°C° 0 mm 3 mps 747 mmHg 86%
    05:00 0°C° 0 mm 3 mps 746 mmHg 86%
    06:00 -1°C° 0 mm 3 mps 746 mmHg 86%
    07:00 -1°C° 0 mm 2 mps 746 mmHg 86%
    08:00 -1°C° 0 mm 2 mps 746 mmHg 86%
    09:00 -1°C° 0 mm 2 mps 746 mmHg 86%
    10:00 +1°C° 0 mm 2 mps 746 mmHg 83%
    11:00 +2°C° 0 mm 2 mps 746 mmHg 81%
    12:00 +3°C° 0 mm 2 mps 746 mmHg 79%
    13:00 +2°C° 0.1 mm 2 mps 746 mmHg 79%
    14:00 +2°C° 0.1 mm 2 mps 746 mmHg 80%
    15:00 +2°C° 0.1 mm 2 mps 746 mmHg 80%
    16:00 +1°C° 0 mm 2 mps 746 mmHg 81%
    17:00 +1°C° 0 mm 2 mps 746 mmHg 82%
    18:00 -1°C° 0 mm 2 mps 746 mmHg 83%
    19:00 -2°C° 0 mm 2 mps 746 mmHg 83%
    20:00 -2°C° 0 mm 2 mps 747 mmHg 83%
    21:00 -2°C° 0 mm 2 mps 747 mmHg 83%
    22:00 -2°C° 0 mm 2 mps 747 mmHg 83%
    23:00 -2°C° 0 mm 2 mps 748 mmHg 82%

    Tomorrow, 23 January, Wednesday

    Time Temperature Precipitation Wind Pressure Humidity
    00:00 -2°C° 0 mm 2 mps 748 mmHg 82%
    01:00 -3°C° 0 mm 2 mps 749 mmHg 81%
    02:00 -3°C° 0 mm 2 mps 749 mmHg 81%
    03:00 -1°C° 0 mm 1 mps 749 mmHg 81%
    04:00 -1°C° 0 mm 1 mps 750 mmHg 81%
    05:00 -1°C° 0 mm 1 mps 750 mmHg 81%
    06:00 -3°C° 0 mm 2 mps 750 mmHg 81%
    07:00 0°C° 0 mm 1 mps 751 mmHg 80%
    08:00 0°C° 0 mm 1 mps 751 mmHg 80%
    09:00 0°C° 0 mm 1 mps 752 mmHg 80%
    10:00 +1°C° 0 mm 1 mps 752 mmHg 77%
    11:00 +2°C° 0 mm 1 mps 753 mmHg 74%
    12:00 +3°C° 0 mm 1 mps 753 mmHg 71%
    13:00 +3°C° 0 mm 1 mps 753 mmHg 73%
    14:00 +3°C° 0 mm 1 mps 753 mmHg 75%
    15:00 +4°C° 0 mm 1 mps 754 mmHg 77%
    16:00 +2°C° 0 mm 2 mps 754 mmHg 79%
    17:00 +2°C° 0 mm 2 mps 754 mmHg 81%
    18:00 +1°C° 0 mm 2 mps 754 mmHg 84%
    19:00 +1°C° 0 mm 2 mps 755 mmHg 85%
    20:00 +1°C° 0 mm 2 mps 755 mmHg 87%
    21:00 +1°C° 0 mm 2 mps 755 mmHg 88%
    22:00 +1°C° 0 mm 2 mps 755 mmHg 90%
    23:00 +1°C° 0 mm 2 mps 756 mmHg 91%

    Day after tomorrow, 24 January, Thursday

    Time Temperature Precipitation Wind Pressure Humidity
    00:00 +1°C° 0 mm 2 mps 756 mmHg 93%
    01:00 +1°C° 0 mm 2 mps 756 mmHg 93%
    02:00 +1°C° 0 mm 2 mps 756 mmHg 94%
    03:00 +2°C° 0 mm 2 mps 756 mmHg 95%
    04:00 +2°C° 0 mm 2 mps 756 mmHg 95%
    05:00 +2°C° 0 mm 2 mps 756 mmHg 95%
    06:00 +3°C° 0 mm 2 mps 756 mmHg 96%
    07:00 +3°C° 0.1 mm 2 mps 756 mmHg 96%
    08:00 +3°C° 0.1 mm 2 mps 756 mmHg 96%
    09:00 +3°C° 0.1 mm 2 mps 756 mmHg 96%
    10:00 +3°C° 0.2 mm 2 mps 756 mmHg 96%
    11:00 +4°C° 0.2 mm 2 mps 756 mmHg 96%
    12:00 +4°C° 0.2 mm 2 mps 756 mmHg 96%
    13:00 +4°C° 0.4 mm 2 mps 756 mmHg 96%
    14:00 +5°C° 0.4 mm 1 mps 755 mmHg 97%
    15:00 +5°C° 0.4 mm 1 mps 755 mmHg 97%
    16:00 +5°C° 0.2 mm 1 mps 755 mmHg 97%
    17:00 +5°C° 0.2 mm 1 mps 755 mmHg 97%
    18:00 +5°C° 0.2 mm 1 mps 755 mmHg 97%
    19:00 +5°C° 0 mm 1 mps 755 mmHg 97%
    20:00 +5°C° 0 mm 2 mps 755 mmHg 97%
    21:00 +5°C° 0 mm 2 mps 756 mmHg 97%
    22:00 +4°C° 0 mm 3 mps 755 mmHg 97%
    23:00 +5°C° 0 mm 3 mps 755 mmHg 97%

    25 January, Friday

    Time Temperature Precipitation Wind Pressure Humidity
    00:00 +5°C° 0 mm 3 mps 755 mmHg 96%
    01:00 +6°C° 0 mm 4 mps 755 mmHg 96%
    02:00 +6°C° 0 mm 4 mps 754 mmHg 96%
    03:00 +7°C° 0 mm 5 mps 754 mmHg 95%
    04:00 +7°C° 0.1 mm 5 mps 754 mmHg 95%
    05:00 +7°C° 0.1 mm 5 mps 753 mmHg 94%
    06:00 +7°C° 0.1 mm 5 mps 753 mmHg 94%
    07:00 +7°C° 0.1 mm 5 mps 753 mmHg 94%
    08:00 +7°C° 0.1 mm 5 mps 752 mmHg 93%
    09:00 +7°C° 0.1 mm 5 mps 752 mmHg 93%
    10:00 +7°C° 0.7 mm 5 mps 752 mmHg 93%
    11:00 +7°C° 0.7 mm 5 mps 751 mmHg 93%
    12:00 +7°C° 0.7 mm 5 mps 751 mmHg 93%
    13:00 +6°C° 0.3 mm 5 mps 751 mmHg 90%
    14:00 +5°C° 0.3 mm 5 mps 750 mmHg 86%
    15:00 +5°C° 0.3 mm 5 mps 750 mmHg 82%
    16:00 +3°C° 0 mm 5 mps 750 mmHg 82%
    17:00 +2°C° 0 mm 5 mps 750 mmHg 82%
    18:00 +3°C° 0 mm 4 mps 750 mmHg 82%
    19:00 +1°C° 0 mm 4 mps 750 mmHg 82%
    20:00 +1°C° 0 mm 4 mps 750 mmHg 82%
    21:00 +1°C° 0 mm 4 mps 750 mmHg 81%
    22:00 +1°C° 0 mm 4 mps 749 mmHg 81%
    23:00 +1°C° 0 mm 4 mps 749 mmHg 80%

    26 January, Saturday

    Time Temperature Precipitation Wind Pressure Humidity
    00:00 +1°C° 0 mm 4 mps 749 mmHg 80%
    01:00 +1°C° 0 mm 4 mps 748 mmHg 80%
    02:00 +1°C° 0 mm 4 mps 748 mmHg 80%
    03:00 +1°C° 0 mm 4 mps 748 mmHg 80%
    04:00 0°C° 0 mm 4 mps 748 mmHg 82%
    05:00 0°C° 0 mm 4 mps 748 mmHg 84%
    06:00 +1°C° 0 mm 3 mps 748 mmHg 85%
    07:00 +1°C° 0 mm 3 mps 748 mmHg 85%
    08:00 +1°C° 0 mm 3 mps 748 mmHg 84%
    09:00 +1°C° 0 mm 3 mps 749 mmHg 84%
    10:00 0°C° 0 mm 4 mps 749 mmHg 78%
    11:00 +1°C° 0 mm 5 mps 749 mmHg 72%
    12:00 +2°C° 0 mm 5 mps 750 mmHg 66%
    13:00 +2°C° 0 mm 5 mps 750 mmHg 66%
    14:00 +2°C° 0 mm 5 mps 751 mmHg 66%
    15:00 +1°C° 0 mm 5 mps 751 mmHg 66%
    16:00 0°C° 0 mm 4 mps 751 mmHg 69%
    17:00 0°C° 0 mm 4 mps 752 mmHg 72%
    18:00 -1°C° 0 mm 4 mps 752 mmHg 74%
    19:00 -1°C° 0 mm 4 mps 753 mmHg 74%
    20:00 -2°C° 0 mm 4 mps 753 mmHg 73%
    21:00 -2°C° 0 mm 4 mps 753 mmHg 72%
    22:00 -2°C° 0 mm 5 mps 753 mmHg 71%
    23:00 -2°C° 0 mm 5 mps 753 mmHg 71%

    27 January, Sunday

    Time Temperature Precipitation Wind Pressure Humidity
    00:00 -1°C° 0 mm 5 mps 753 mmHg 70%
    01:00 -2°C° 0 mm 5 mps 753 mmHg 70%
    02:00 -2°C° 0 mm 5 mps 753 mmHg 71%
    03:00 -2°C° 0 mm 4 mps 753 mmHg 71%
    04:00 -2°C° 0 mm 4 mps 753 mmHg 71%
    05:00 -2°C° 0 mm 4 mps 753 mmHg 71%
    06:00 -2°C° 0 mm 4 mps 754 mmHg 71%
    07:00 -2°C° 0 mm 4 mps 754 mmHg 72%
    08:00 -1°C° 0 mm 3 mps 754 mmHg 72%
    09:00 -1°C° 0 mm 3 mps 754 mmHg 73%
    10:00 0°C° 0 mm 3 mps 755 mmHg 68%
    11:00 0°C° 0 mm 4 mps 755 mmHg 63%
    12:00 +1°C° 0 mm 4 mps 755 mmHg 57%
    13:00 +1°C° 0 mm 4 mps 755 mmHg 59%
    14:00 +2°C° 0 mm 3 mps 755 mmHg 61%
    15:00 +2°C° 0 mm 3 mps 756 mmHg 62%
    16:00 +2°C° 0 mm 2 mps 756 mmHg 67%
    17:00 +1°C° 0 mm 2 mps 757 mmHg 72%
    18:00 -1°C° 0 mm 2 mps 757 mmHg 78%
    19:00 -1°C° 0 mm 2 mps 758 mmHg 78%
    20:00 -1°C° 0 mm 2 mps 758 mmHg 79%
    21:00 -2°C° 0 mm 2 mps 759 mmHg 80%
    22:00 -2°C° 0 mm 2 mps 759 mmHg 79%
    23:00 -2°C° 0 mm 2 mps 759 mmHg 79%
    Show more